When you browse on this site, cookies collect data to enhance your experience and personalize the content and advertising you see.
Visit our Privacy Policy to learn more. By continuing to use the site, you agree to this use of cookies and data.
  • In Latvia
  • List of Countries
  • For 7 days
  • Water Temperature
  • Weather Map
  • Weather Widgets
  • user-avatar
    Login

    Hourly Weather Canillo

    Today, 18 February, Tuesday

    Time Temperature Precipitation Wind Pressure Humidity
    00:00 -1°C° 0 mm 2 mps 624 mmHg 87%
    01:00 -1°C° 0 mm 2 mps 624 mmHg 87%
    02:00 -2°C° 0 mm 2 mps 623 mmHg 87%
    03:00 -1°C° 0 mm 1 mps 623 mmHg 87%
    04:00 -3°C° 0 mm 2 mps 623 mmHg 86%
    05:00 -3°C° 0 mm 2 mps 623 mmHg 85%
    06:00 -4°C° 0 mm 2 mps 623 mmHg 85%
    07:00 -2°C° 0 mm 2 mps 624 mmHg 79%
    08:00 +1°C° 0 mm 1 mps 624 mmHg 72%
    09:00 +2°C° 0 mm 1 mps 625 mmHg 66%
    10:00 +3°C° 0 mm 1 mps 625 mmHg 62%
    11:00 +4°C° 0 mm 1 mps 625 mmHg 59%
    12:00 +4°C° 0 mm 2 mps 626 mmHg 56%
    13:00 +4°C° 0 mm 2 mps 625 mmHg 57%
    14:00 +4°C° 0 mm 2 mps 625 mmHg 59%
    15:00 +5°C° 0 mm 1 mps 624 mmHg 60%
    16:00 +4°C° 0 mm 1 mps 624 mmHg 69%
    17:00 +2°C° 0 mm 1 mps 623 mmHg 78%
    18:00 0°C° 0 mm 1 mps 623 mmHg 88%
    19:00 0°C° 0 mm 1 mps 623 mmHg 88%
    20:00 0°C° 0 mm 1 mps 623 mmHg 88%
    21:00 -3°C° 0 mm 2 mps 623 mmHg 89%
    22:00 -3°C° 0 mm 2 mps 623 mmHg 88%
    23:00 -3°C° 0 mm 2 mps 623 mmHg 87%

    Tomorrow, 19 February, Wednesday

    Time Temperature Precipitation Wind Pressure Humidity
    00:00 -2°C° 0 mm 1 mps 623 mmHg 87%
    01:00 -4°C° 0 mm 2 mps 622 mmHg 84%
    02:00 -4°C° 0 mm 2 mps 622 mmHg 82%
    03:00 -4°C° 0 mm 2 mps 622 mmHg 80%
    04:00 -4°C° 0 mm 2 mps 622 mmHg 77%
    05:00 -4°C° 0 mm 2 mps 622 mmHg 73%
    06:00 -5°C° 0 mm 2 mps 622 mmHg 70%
    07:00 -3°C° 0 mm 2 mps 623 mmHg 64%
    08:00 -2°C° 0 mm 2 mps 624 mmHg 58%
    09:00 +1°C° 0 mm 2 mps 625 mmHg 52%
    10:00 +3°C° 0 mm 2 mps 625 mmHg 46%
    11:00 +5°C° 0 mm 2 mps 626 mmHg 41%
    12:00 +7°C° 0 mm 2 mps 626 mmHg 35%
    13:00 +7°C° 0 mm 1 mps 625 mmHg 39%
    14:00 +7°C° 0 mm 1 mps 625 mmHg 43%
    15:00 +7°C° 0 mm 1 mps 624 mmHg 46%
    16:00 +5°C° 0 mm 1 mps 623 mmHg 58%
    17:00 +3°C° 0 mm 1 mps 622 mmHg 70%
    18:00 0°C° 0 mm 1 mps 621 mmHg 81%
    19:00 0°C° 0 mm 1 mps 621 mmHg 75%
    20:00 +1°C° 0 mm 1 mps 621 mmHg 69%
    21:00 +1°C° 0 mm 1 mps 622 mmHg 63%
    22:00 +1°C° 0 mm 1 mps 621 mmHg 58%
    23:00 +1°C° 0 mm 1 mps 621 mmHg 52%

    Day after tomorrow, 20 February, Thursday

    Time Temperature Precipitation Wind Pressure Humidity
    00:00 +1°C° 0 mm 1 mps 621 mmHg 47%
    01:00 +1°C° 0 mm 1 mps 621 mmHg 44%
    02:00 +1°C° 0 mm 1 mps 620 mmHg 41%
    03:00 +2°C° 0 mm 1 mps 620 mmHg 38%
    04:00 +2°C° 0 mm 1 mps 620 mmHg 35%
    05:00 +2°C° 0 mm 1 mps 619 mmHg 33%
    06:00 +2°C° 0 mm 1 mps 619 mmHg 31%
    07:00 +4°C° 0 mm 1 mps 620 mmHg 30%
    08:00 +6°C° 0 mm 1 mps 621 mmHg 30%
    09:00 +7°C° 0 mm 0 mps 622 mmHg 29%
    10:00 +9°C° 0 mm 1 mps 622 mmHg 29%
    11:00 +10°C° 0 mm 1 mps 622 mmHg 28%
    12:00 +12°C° 0 mm 1 mps 623 mmHg 28%
    13:00 +11°C° 0 mm 1 mps 622 mmHg 31%
    14:00 +11°C° 0 mm 1 mps 622 mmHg 33%
    15:00 +11°C° 0 mm 1 mps 622 mmHg 36%
    16:00 +8°C° 0 mm 1 mps 621 mmHg 46%
    17:00 +5°C° 0 mm 1 mps 620 mmHg 56%
    18:00 +3°C° 0 mm 1 mps 620 mmHg 66%
    19:00 +3°C° 0 mm 1 mps 620 mmHg 66%
    20:00 +2°C° 0 mm 1 mps 621 mmHg 65%
    21:00 +2°C° 0 mm 1 mps 621 mmHg 65%
    22:00 +2°C° 0 mm 1 mps 621 mmHg 68%
    23:00 +1°C° 0 mm 1 mps 621 mmHg 72%

    21 February, Friday

    Time Temperature Precipitation Wind Pressure Humidity
    00:00 -1°C° 0 mm 2 mps 621 mmHg 76%
    01:00 -1°C° 0 mm 2 mps 621 mmHg 78%
    02:00 -2°C° 0 mm 2 mps 621 mmHg 80%
    03:00 -2°C° 0 mm 2 mps 621 mmHg 82%
    04:00 -2°C° 0 mm 2 mps 621 mmHg 81%
    05:00 -2°C° 0 mm 2 mps 622 mmHg 81%
    06:00 -2°C° 0 mm 2 mps 622 mmHg 81%
    13:00 +9°C° 0 mm 1 mps 626 mmHg 48%
    14:00 +7°C° 0 mm 2 mps 625 mmHg 49%
    15:00 +7°C° 0 mm 2 mps 625 mmHg 51%
    16:00 +6°C° 0 mm 1 mps 624 mmHg 61%
    17:00 +4°C° 0 mm 1 mps 623 mmHg 71%
    18:00 +2°C° 0 mm 1 mps 623 mmHg 81%
    19:00 +2°C° 0 mm 1 mps 623 mmHg 71%
    20:00 +2°C° 0 mm 1 mps 623 mmHg 61%
    21:00 +2°C° 0 mm 1 mps 623 mmHg 51%
    22:00 +2°C° 0 mm 1 mps 623 mmHg 46%
    23:00 +2°C° 0 mm 1 mps 624 mmHg 40%

    22 February, Saturday

    Time Temperature Precipitation Wind Pressure Humidity
    00:00 +2°C° 0 mm 1 mps 624 mmHg 35%
    01:00 +2°C° 0 mm 1 mps 624 mmHg 33%
    02:00 +2°C° 0 mm 1 mps 624 mmHg 31%
    03:00 +2°C° 0 mm 1 mps 624 mmHg 30%
    04:00 +2°C° 0 mm 1 mps 624 mmHg 30%
    05:00 +2°C° 0 mm 1 mps 624 mmHg 30%
    06:00 +2°C° 0 mm 1 mps 624 mmHg 31%
    07:00 +4°C° 0 mm 1 mps 625 mmHg 30%
    08:00 +5°C° 0 mm 0 mps 626 mmHg 30%
    09:00 +7°C° 0 mm 0 mps 627 mmHg 30%
    10:00 +8°C° 0 mm 0 mps 628 mmHg 30%
    11:00 +10°C° 0 mm 1 mps 628 mmHg 30%
    12:00 +11°C° 0 mm 1 mps 629 mmHg 31%
    13:00 +11°C° 0 mm 1 mps 629 mmHg 33%
    14:00 +11°C° 0 mm 1 mps 628 mmHg 36%
    15:00 +11°C° 0 mm 1 mps 628 mmHg 39%
    16:00 +9°C° 0 mm 1 mps 627 mmHg 48%
    17:00 +6°C° 0 mm 0 mps 626 mmHg 57%
    18:00 +3°C° 0 mm 0 mps 626 mmHg 66%
    19:00 +3°C° 0 mm 0 mps 626 mmHg 63%
    20:00 +4°C° 0 mm 1 mps 626 mmHg 59%
    21:00 +4°C° 0 mm 1 mps 626 mmHg 56%
    22:00 +4°C° 0 mm 1 mps 626 mmHg 53%
    23:00 +4°C° 0 mm 1 mps 626 mmHg 51%

    23 February, Sunday

    Time Temperature Precipitation Wind Pressure Humidity
    00:00 +4°C° 0 mm 1 mps 626 mmHg 48%
    01:00 +4°C° 0 mm 1 mps 626 mmHg 47%
    02:00 +4°C° 0 mm 1 mps 626 mmHg 46%
    03:00 +4°C° 0 mm 1 mps 625 mmHg 45%
    04:00 +4°C° 0 mm 1 mps 625 mmHg 44%
    05:00 +4°C° 0 mm 1 mps 626 mmHg 43%
    06:00 +4°C° 0 mm 1 mps 626 mmHg 42%
    07:00 +6°C° 0 mm 1 mps 627 mmHg 40%
    08:00 +7°C° 0 mm 0 mps 628 mmHg 38%
    09:00 +9°C° 0 mm 0 mps 629 mmHg 36%
    10:00 +11°C° 0 mm 1 mps 629 mmHg 35%
    11:00 +13°C° 0 mm 1 mps 629 mmHg 33%
    12:00 +14°C° 0 mm 1 mps 630 mmHg 31%
    13:00 +14°C° 0 mm 1 mps 629 mmHg 34%
    14:00 +14°C° 0 mm 1 mps 629 mmHg 37%
    15:00 +13°C° 0 mm 1 mps 628 mmHg 39%
    16:00 +11°C° 0 mm 1 mps 627 mmHg 50%
    17:00 +9°C° 0 mm 1 mps 626 mmHg 60%
    18:00 +5°C° 0 mm 0 mps 625 mmHg 70%
    19:00 +6°C° 0 mm 1 mps 626 mmHg 69%
    20:00 +6°C° 0 mm 1 mps 626 mmHg 68%
    21:00 +6°C° 0 mm 1 mps 626 mmHg 67%
    22:00 +6°C° 0 mm 1 mps 626 mmHg 65%
    23:00 +6°C° 0 mm 1 mps 625 mmHg 63%
    Show more